Starlink 31782

operational
NORAD ID: 59606 Int'l Des: 2024-080 Owner: SPXS Country: US Constellation: starlink
LEOCIRCULAR

About Starlink 31782

Description loading...

Live Position

Loading 3D Globe...

Upcoming Passes

Altitude History

Altitude vs Time

uPlot chart will show altitude changes over time

Two-Line Element Set

1 59606U 24080F 25304.65338726 .00006210 00000-0 23487-3 0 9990
2 59606 43.0008 50.4888 0001257 264.9406 95.1302 15.27597692 84759
Epoch: Oct 31, 2025 • Age: 20 hours

Current Status

Altitude 482.5 km
Velocity 7.63 km/s
Sub-Earth Point 17.45°N, 2.43°W
Launch Date Apr 28, 2024
Age 1.5 years
Type internet

Technical Details

Classification Payload
Mass 730.00 kg
Dry Mass 700.00 kg
Total Mass 730.00 kg
Length 0.30 m
Diameter 4.10 m
Span 29.00 m
Shape Box + pan
Manufacturer SPXS
Bus Type Starlink V2M
Phase Status In Orbit
Owner/State SPXS/US

Large Constellations

Loading constellations...